G2496 Weather Reports


time (UTC)temp
F
wind
direction
speed
knots
gust
knots
rain 1hr
in
rain 24hr
in
rain mn
in
humidity
%
barometer
mb
20260503212143 93 10 1.7 4.3 0.00 0.00 0.00 22 997.9
20260503211122 92 348 2.6 5.2 0.00 0.00 0.00 22 998.0
20260503210143 89 8 1.7 4.3 0.00 0.00 0.00 25 998.2
20260503205122 90 341 2.6 7.8 0.00 0.00 0.00 26 998.4
20260503204122 89 358 2.6 7.0 0.00 0.00 0.00 28 998.4
20260503203122 91 313 1.7 3.5 0.00 0.00 0.00 27 998.5
20260503202122 87 355 3.5 7.8 0.00 0.00 0.00 30 998.7
20260503201122 86 7 3.5 6.1 0.00 0.00 0.00 29 998.9
20260503200122 87 13 2.6 6.1 0.00 0.00 0.00 31 999.0
20260503195143 85 13 2.6 5.2 0.00 0.00 0.00 33 999.1
20260503194122 86 10 1.7 4.3 0.00 0.00 0.00 32 999.2
20260503193143 86 338 1.7 5.2 0.00 0.00 0.00 33 999.2
20260503192122 83 30 3.5 7.8 0.00 0.00 0.00 35 999.4
20260503191122 83 332 2.6 5.2 0.00 0.00 0.00 38 999.5
20260503190122 82 24 1.7 4.3 0.00 0.00 0.00 40 999.6
20260503185123 82 9 1.7 3.5 0.00 0.00 0.00 39 999.8
20260503184122 79 10 2.6 7.0 0.00 0.00 0.00 41 999.9
20260503183122 78 344 2.6 6.1 0.00 0.00 0.00 42 1000.0
20260503182122 77 345 2.6 5.2 0.00 0.00 0.00 44 1000.1
20260503181122 77 10 2.6 7.0 0.00 0.00 0.00 43 1000.2
20260503180122 75 329 2.6 5.2 0.00 0.00 0.00 47 1000.3
20260503175143 74 349 2.6 6.1 0.00 0.00 0.00 49 1000.4
20260503174122 74 4 2.6 5.2 0.00 0.00 0.00 50 1000.5
20260503173143 73 55 1.7 3.5 0.00 0.00 0.00 53 1000.5
20260503172122 71 17 2.6 4.3 0.00 0.00 0.00 54 1000.7
20260503171122 71 31 1.7 4.3 0.00 0.00 0.00 54 1000.6
20260503170122 69 14 2.6 5.2 0.00 0.00 0.00 57 1000.6
20260503160122 65 26 1.7 3.5 0.00 0.00 0.00 66 1001.1
20260503150143 63 172 0.0 1.7 0.00 0.00 0.00 76 1001.2
20260503140122 52 160 0.9 2.6 0.00 0.00 0.00 96 1001.2
20260503131144 50 154 0.9 3.5 0.00 0.00 0.00 95 1001.0
20260503130122 50 123 0.9 2.6 0.00 0.00 0.00 95 1001.0
20260503120122 51 227 0.9 2.6 0.00 0.00 0.00 94 1001.0
20260503110122 53 43 0.0 0.9 0.00 0.00 0.00 92 1001.2
20260503100122 53 172 0.0 0.0 0.00 0.00 0.00 91 1001.3
20260503090122 55 155 0.9 1.7 0.00 0.00 0.00 88 1001.5
20260503081122 57 162 0.9 1.7 0.00 0.00 0.00 85 1001.4
20260503080122 57 45 0.0 0.9 0.00 0.00 0.00 85 1001.3
20260503072123 59 59 0.0 0.9 0.00 0.00 0.00 81 1001.5
20260503071122 60 31 0.0 0.9 0.00 0.00 0.00 79 1001.5
20260503070122 60 29 0.0 0.0 0.00 0.00 0.00 78 1001.6
20260503060122 63 63 1.7 3.5 0.00 0.00 0.02 71 1001.1
20260503055122 63 32 1.7 4.3 0.00 0.00 0.02 72 1000.9
20260503054122 64 26 1.7 3.5 0.00 0.00 0.02 71 1001.2
20260503053122 63 25 0.9 2.6 0.00 0.00 0.02 71 1001.4
20260503052122 63 16 0.9 1.7 0.00 0.00 0.02 71 1001.5
20260503051122 64 205 1.7 1.7 0.00 0.00 0.02 71 1001.7
20260503050122 64 33 0.9 2.6 0.00 0.00 0.02 70 1001.7
20260503045122 64 7 1.7 2.6 0.00 0.00 0.02 69 1001.7
20260503044122 64 202 1.7 2.6 0.00 0.00 0.02 68 1001.8
20260503043123 65 88 0.0 0.9 0.00 0.00 0.02 67 1001.6
20260503042122 66 22 1.7 2.6 0.00 0.00 0.02 65 1001.7
20260503041122 65 13 1.7 3.5 0.00 0.00 0.02 66 1001.7
20260503040122 65 193 0.0 0.9 0.00 0.00 0.02 65 1001.7
20260503035122 66 150 0.9 1.7 0.00 0.00 0.02 65 1001.6
20260503034122 67 302 1.7 4.3 0.00 0.00 0.02 61 1001.6
20260503033143 66 161 1.7 3.5 0.00 0.00 0.02 64 1001.4
20260503032122 66 174 1.7 5.2 0.00 0.00 0.02 63 1001.4
20260503031122 67 205 4.3 7.8 0.00 0.00 0.02 61 1001.3
20260503030122 67 195 5.2 8.7 0.00 0.00 0.02 62 1001.1
20260503025122 68 206 4.3 10.4 0.00 0.00 0.02 59 1001.2
20260503024122 70 209 3.5 8.7 0.00 0.00 0.02 56 1001.0
20260503023122 73 196 4.3 7.8 0.00 0.00 0.02 53 1000.7
20260503022122 73 200 4.3 7.8 0.00 0.00 0.02 52 1000.7
20260503021122 73 205 2.6 5.2 0.00 0.00 0.02 51 1000.3
20260503020122 75 218 3.5 4.3 0.00 0.00 0.02 48 1000.1
20260503015122 73 206 2.6 5.2 0.00 0.00 0.02 50 1000.0
20260503014122 74 191 3.5 5.2 0.00 0.00 0.02 49 999.9
20260503013122 73 173 2.6 5.2 0.00 0.00 0.02 51 999.8
20260503012122 77 338 2.6 5.2 0.00 0.00 0.02 46 999.9
20260503011123 77 348 3.5 4.3 0.00 0.00 0.02 45 1000.0
20260503010122 76 356 4.3 6.1 0.00 0.00 0.02 46 999.9
20260503005123 78 349 2.6 6.1 0.00 0.00 0.02 44 1000.0
20260503004122 77 5 2.6 5.2 0.00 0.00 0.02 46 1000.1
20260503003123 76 13 3.5 7.8 0.00 0.00 0.02 46 1000.0
20260503002122 75 358 2.6 4.3 0.00 0.00 0.02 48 1000.1
20260503001122 75 351 3.5 5.2 0.00 0.00 0.02 47 1000.1
20260503000122 75 354 4.3 7.8 0.00 0.00 0.02 48 1000.0
20260502235122 74 3 3.5 7.0 0.00 0.00 0.02 48 1000.0
20260502234143 75 356 4.3 8.7 0.00 0.00 0.02 48 1000.2
20260502233122 74 15 5.2 8.7 0.00 0.00 0.02 48 1000.3
20260502232122 74 344 3.5 7.0 0.00 0.00 0.02 48 1000.4
20260502231122 73 355 3.5 7.0 0.00 0.00 0.02 48 1000.6
20260502230122 73 358 2.6 5.2 0.00 0.00 0.02 49 1000.7
20260502225122 74 347 3.5 7.0 0.00 0.00 0.02 47 1000.8
20260502224143 75 18 2.6 7.8 0.00 0.00 0.02 45 1001.1
20260502223122 74 15 1.7 3.5 0.00 0.00 0.02 48 1001.2
20260502222122 73 329 1.7 5.2 0.00 0.00 0.02 49 1001.5
20260502221123 72 328 4.3 9.6 0.00 0.00 0.02 50 1001.7
20260502220122 71 10 4.3 7.0 0.00 0.00 0.02 50 1001.7
20260502215122 73 50 2.6 6.1 0.00 0.00 0.02 48 1001.9
20260502214122 73 33 1.7 4.3 0.00 0.00 0.02 48 1001.9
20260502213123 70 350 2.6 5.2 0.00 0.00 0.02 52 1002.1